Time,TemperatureF,DewpointF,PressureIn,WindDirection,WindDirectionDegrees,WindSpeedMPH,WindSpeedGustMPH,Humidity,HourlyPrecipIn,Conditions,Clouds,dailyrainin,SoftwareType,DateUTC
2013-01-15 00:12:00,22.7,22.0,30.57,East,85,0.0,0.0,95,0.00,,,0.00,weatherlink.com 1.10,2013-01-15 08:12:00,
2013-01-15 00:27:00,22.6,22.0,30.56,East,88,0.0,0.0,96,0.00,,,0.00,weatherlink.com 1.10,2013-01-15 08:27:00,
2013-01-15 00:42:00,22.9,22.0,30.57,East,88,0.0,0.0,95,0.00,,,0.00,weatherlink.com 1.10,2013-01-15 08:42:00,
2013-01-15 00:57:00,22.6,21.0,30.57,East,87,0.0,0.0,95,0.00,,,0.00,weatherlink.com 1.10,2013-01-15 08:57:00,
2013-01-15 01:12:00,22.7,22.0,30.58,East,87,0.0,0.0,95,0.00,,,0.00,weatherlink.com 1.10,2013-01-15 09:12:00,
2013-01-15 01:28:00,22.5,21.0,30.59,East,88,0.0,0.0,95,0.00,,,0.00,weatherlink.com 1.10,2013-01-15 09:28:00,
2013-01-15 01:42:00,22.6,22.0,30.59,East,88,0.0,0.0,96,0.00,,,0.00,weatherlink.com 1.10,2013-01-15 09:42:00,
2013-01-15 01:57:00,22.5,21.0,30.61,NNE,23,0.0,0.0,95,0.00,,,0.00,weatherlink.com 1.10,2013-01-15 09:57:00,
2013-01-15 02:12:00,22.5,21.0,30.60,NNE,23,0.0,0.0,95,0.00,,,0.00,weatherlink.com 1.10,2013-01-15 10:12:00,
2013-01-15 02:27:00,22.4,21.0,30.60,NNE,23,0.0,0.0,95,0.00,,,0.00,weatherlink.com 1.10,2013-01-15 10:27:00,
2013-01-15 02:42:00,22.4,21.0,30.61,NNE,25,0.0,0.0,95,0.00,,,0.00,weatherlink.com 1.10,2013-01-15 10:42:00,
2013-01-15 02:57:00,22.3,21.0,30.60,NNE,25,0.0,0.0,95,0.00,,,0.00,weatherlink.com 1.10,2013-01-15 10:57:00,
2013-01-15 03:12:00,22.3,21.0,30.60,NNW,333,0.0,0.0,95,0.00,,,0.00,weatherlink.com 1.10,2013-01-15 11:12:00,
2013-01-15 03:27:00,22.5,21.0,30.60,NNE,27,0.0,0.0,95,0.00,,,0.00,weatherlink.com 1.10,2013-01-15 11:27:00,
2013-01-15 03:42:00,22.6,21.0,30.59,NNE,27,0.0,0.0,95,0.00,,,0.00,weatherlink.com 1.10,2013-01-15 11:42:00,
2013-01-15 03:57:00,22.7,22.0,30.59,NNE,27,0.0,0.0,95,0.00,,,0.00,weatherlink.com 1.10,2013-01-15 11:57:00,
2013-01-15 04:12:00,22.4,21.0,30.59,NNE,27,0.0,0.0,95,0.00,,,0.00,weatherlink.com 1.10,2013-01-15 12:12:00,
2013-01-15 04:27:00,22.3,21.0,30.60,NNE,27,0.0,0.0,95,0.00,,,0.00,weatherlink.com 1.10,2013-01-15 12:27:00,
2013-01-15 04:42:00,22.3,21.0,30.60,NNE,27,0.0,0.0,95,0.00,,,0.00,weatherlink.com 1.10,2013-01-15 12:42:00,
2013-01-15 04:57:00,22.4,21.0,30.61,NNE,12,0.0,0.0,95,0.00,,,0.00,weatherlink.com 1.10,2013-01-15 12:57:00,
2013-01-15 05:12:00,22.5,21.0,30.60,SSW,210,0.0,0.0,95,0.00,,,0.00,weatherlink.com 1.10,2013-01-15 13:12:00,
2013-01-15 05:27:00,22.7,21.0,30.60,West,278,0.0,0.0,94,0.00,,,0.00,weatherlink.com 1.10,2013-01-15 13:27:00,
2013-01-15 05:42:00,22.8,21.0,30.60,West,278,0.0,0.0,94,0.00,,,0.00,weatherlink.com 1.10,2013-01-15 13:42:00,
2013-01-15 05:57:00,22.8,22.0,30.61,West,278,0.0,0.0,95,0.00,,,0.00,weatherlink.com 1.10,2013-01-15 13:57:00,
2013-01-15 06:12:00,23.2,22.0,30.62,West,278,0.0,0.0,94,0.00,,,0.00,weatherlink.com 1.10,2013-01-15 14:12:00,
2013-01-15 06:27:00,22.9,22.0,30.63,West,278,0.0,0.0,95,0.00,,,0.00,weatherlink.com 1.10,2013-01-15 14:27:00,
2013-01-15 06:42:00,22.9,22.0,30.63,West,278,0.0,0.0,95,0.00,,,0.00,weatherlink.com 1.10,2013-01-15 14:42:00,
2013-01-15 06:57:00,23.0,22.0,30.64,West,278,0.0,0.0,95,0.00,,,0.00,weatherlink.com 1.10,2013-01-15 14:57:00,
2013-01-15 07:12:00,22.9,22.0,30.64,West,278,0.0,0.0,95,0.00,,,0.00,weatherlink.com 1.10,2013-01-15 15:12:00,
2013-01-15 07:27:00,22.9,22.0,30.65,West,278,0.0,0.0,95,0.00,,,0.00,weatherlink.com 1.10,2013-01-15 15:27:00,
2013-01-15 07:42:00,22.9,22.0,30.65,West,278,0.0,0.0,95,0.00,,,0.00,weatherlink.com 1.10,2013-01-15 15:42:00,
2013-01-15 07:57:00,23.1,22.0,30.66,WSW,255,0.0,0.0,95,0.00,,,0.00,weatherlink.com 1.10,2013-01-15 15:57:00,
2013-01-15 08:12:00,23.3,22.0,30.66,WSW,255,0.0,0.0,95,0.00,,,0.00,weatherlink.com 1.10,2013-01-15 16:12:00,
2013-01-15 08:27:00,23.3,22.0,30.67,WSW,254,0.0,0.0,95,0.00,,,0.00,weatherlink.com 1.10,2013-01-15 16:27:00,
2013-01-15 08:42:00,23.8,23.0,30.68,WSW,255,0.0,0.0,95,0.00,,,0.00,weatherlink.com 1.10,2013-01-15 16:42:00,
2013-01-15 08:58:00,24.3,23.0,30.68,WSW,255,0.0,0.0,94,0.00,,,0.00,weatherlink.com 1.10,2013-01-15 16:58:00,
2013-01-15 09:13:00,24.7,23.0,30.67,WSW,255,0.0,0.0,94,0.00,,,0.00,weatherlink.com 1.10,2013-01-15 17:13:00,
2013-01-15 09:28:00,24.8,23.0,30.68,WSW,254,0.0,0.0,94,0.00,,,0.00,weatherlink.com 1.10,2013-01-15 17:28:00,
2013-01-15 09:43:00,24.6,23.0,30.68,WSW,255,0.0,0.0,94,0.00,,,0.00,weatherlink.com 1.10,2013-01-15 17:43:00,
2013-01-15 09:58:00,24.8,23.0,30.69,West,278,0.0,0.0,94,0.00,,,0.00,weatherlink.com 1.10,2013-01-15 17:58:00,
2013-01-15 10:13:00,25.7,24.0,30.69,West,278,0.0,0.0,94,0.00,,,0.00,weatherlink.com 1.10,2013-01-15 18:13:00,
2013-01-15 10:28:00,26.1,24.0,30.69,WSW,253,0.0,0.0,93,0.00,,,0.00,weatherlink.com 1.10,2013-01-15 18:28:00,
2013-01-15 10:43:00,26.8,25.0,30.69,WSW,253,0.0,0.0,93,0.00,,,0.00,weatherlink.com 1.10,2013-01-15 18:43:00,
2013-01-15 10:58:00,26.7,25.0,30.68,West,267,0.0,0.0,93,0.00,,,0.00,weatherlink.com 1.10,2013-01-15 18:58:00,
2013-01-15 11:13:00,27.3,26.0,30.68,West,267,0.0,0.0,94,0.00,,,0.00,weatherlink.com 1.10,2013-01-15 19:13:00,
2013-01-15 11:28:00,27.7,26.0,30.68,WSW,248,0.0,0.0,93,0.00,,,0.00,weatherlink.com 1.10,2013-01-15 19:28:00,
2013-01-15 11:43:00,28.1,26.0,30.68,West,263,0.0,0.0,92,0.00,,,0.00,weatherlink.com 1.10,2013-01-15 19:43:00,
2013-01-15 11:58:00,27.7,26.0,30.69,West,263,0.0,0.0,93,0.00,,,0.00,weatherlink.com 1.10,2013-01-15 19:58:00,
2013-01-15 12:13:00,27.8,26.0,30.68,East,82,0.0,0.0,94,0.00,,,0.00,weatherlink.com 1.10,2013-01-15 20:13:00,
2013-01-15 12:28:00,28.1,26.0,30.68,NE,43,0.0,0.0,93,0.00,,,0.00,weatherlink.com 1.10,2013-01-15 20:28:00,
2013-01-15 12:43:00,28.7,26.0,30.68,SE,127,0.0,0.0,91,0.00,,,0.00,weatherlink.com 1.10,2013-01-15 20:43:00,
2013-01-15 12:58:00,29.0,27.0,30.67,SE,127,0.0,0.0,91,0.00,,,0.00,weatherlink.com 1.10,2013-01-15 20:58:00,
2013-01-15 13:13:00,29.1,27.0,30.67,NNE,27,0.0,0.0,91,0.00,,,0.00,weatherlink.com 1.10,2013-01-15 21:13:00,
2013-01-15 13:28:00,29.0,27.0,30.68,NNE,26,0.0,0.0,91,0.00,,,0.00,weatherlink.com 1.10,2013-01-15 21:28:00,
2013-01-15 13:43:00,29.1,27.0,30.68,NNE,33,0.0,0.0,91,0.00,,,0.00,weatherlink.com 1.10,2013-01-15 21:43:00,
2013-01-15 13:58:00,29.2,27.0,30.69,NNE,33,0.0,0.0,91,0.00,,,0.00,weatherlink.com 1.10,2013-01-15 21:58:00,
2013-01-15 14:13:00,29.4,27.0,30.68,NNE,33,0.0,0.0,91,0.00,,,0.00,weatherlink.com 1.10,2013-01-15 22:13:00,
2013-01-15 14:28:00,29.0,27.0,30.68,East,98,0.0,0.0,91,0.00,,,0.00,weatherlink.com 1.10,2013-01-15 22:28:00,
2013-01-15 14:43:00,28.8,27.0,30.68,North,356,0.0,0.0,92,0.00,,,0.00,weatherlink.com 1.10,2013-01-15 22:43:00,
2013-01-15 14:58:00,28.8,27.0,30.68,North,356,0.0,0.0,92,0.00,,,0.00,weatherlink.com 1.10,2013-01-15 22:58:00,
2013-01-15 15:13:00,29.0,27.0,30.68,NNE,18,0.0,0.0,92,0.00,,,0.00,weatherlink.com 1.10,2013-01-15 23:13:00,
2013-01-15 15:28:00,28.7,27.0,30.68,NNE,26,0.0,0.0,93,0.00,,,0.00,weatherlink.com 1.10,2013-01-15 23:28:00,
2013-01-15 15:43:00,28.7,27.0,30.69,North,1,0.0,0.0,93,0.00,,,0.00,weatherlink.com 1.10,2013-01-15 23:43:00,
2013-01-15 15:58:00,28.6,27.0,30.69,East,96,0.0,0.0,94,0.00,,,0.00,weatherlink.com 1.10,2013-01-15 23:58:00,
2013-01-15 16:13:00,28.4,27.0,30.68,NNE,33,0.0,0.0,94,0.00,,,0.00,weatherlink.com 1.10,2013-01-16 00:13:00,
2013-01-15 16:28:00,28.4,27.0,30.68,NNE,25,0.0,0.0,94,0.00,,,0.00,weatherlink.com 1.10,2013-01-16 00:28:00,
2013-01-15 16:43:00,28.2,27.0,30.68,NNE,27,0.0,0.0,95,0.00,,,0.00,weatherlink.com 1.10,2013-01-16 00:43:00,
2013-01-15 16:58:00,28.0,27.0,30.68,NNE,27,0.0,0.0,95,0.00,,,0.00,weatherlink.com 1.10,2013-01-16 00:58:00,
2013-01-15 17:13:00,27.9,27.0,30.68,NW,322,0.0,0.0,95,0.00,,,0.00,weatherlink.com 1.10,2013-01-16 01:13:00,
2013-01-15 17:28:00,27.8,27.0,30.68,SSW,204,0.0,0.0,95,0.00,,,0.00,weatherlink.com 1.10,2013-01-16 01:28:00,
2013-01-15 17:43:00,27.2,26.0,30.68,SSW,204,0.0,0.0,96,0.00,,,0.00,weatherlink.com 1.10,2013-01-16 01:43:00,
2013-01-15 17:58:00,26.2,25.0,30.68,SSW,204,0.0,0.0,95,0.00,,,0.00,weatherlink.com 1.10,2013-01-16 01:58:00,
2013-01-15 18:13:00,25.4,25.0,30.68,WSW,240,0.0,0.0,96,0.00,,,0.00,weatherlink.com 1.10,2013-01-16 02:13:00,
2013-01-15 18:28:00,25.0,24.0,30.68,WSW,240,0.0,0.0,96,0.00,,,0.00,weatherlink.com 1.10,2013-01-16 02:28:00,
2013-01-15 18:43:00,24.5,23.0,30.69,WSW,240,0.0,0.0,95,0.00,,,0.00,weatherlink.com 1.10,2013-01-16 02:43:00,
2013-01-15 18:58:00,23.8,23.0,30.69,WSW,240,0.0,0.0,95,0.00,,,0.00,weatherlink.com 1.10,2013-01-16 02:58:00,
2013-01-15 19:13:00,23.1,22.0,30.69,ESE,123,0.0,0.0,96,0.00,,,0.00,weatherlink.com 1.10,2013-01-16 03:13:00,
2013-01-15 19:28:00,22.6,22.0,30.68,WSW,252,0.0,0.0,96,0.00,,,0.00,weatherlink.com 1.10,2013-01-16 03:28:00,
2013-01-15 19:43:00,22.1,21.0,30.68,WSW,256,0.0,0.0,96,0.00,,,0.00,weatherlink.com 1.10,2013-01-16 03:43:00,
2013-01-15 19:58:00,21.2,20.0,30.68,ESE,121,0.0,0.0,95,0.00,,,0.00,weatherlink.com 1.10,2013-01-16 03:58:00,
2013-01-15 20:13:00,21.1,20.0,30.68,ESE,121,0.0,0.0,96,0.00,,,0.00,weatherlink.com 1.10,2013-01-16 04:13:00,
2013-01-15 20:28:00,20.3,19.0,30.68,ESE,121,0.0,0.0,95,0.00,,,0.00,weatherlink.com 1.10,2013-01-16 04:28:00,
2013-01-15 20:43:00,20.1,19.0,30.68,ESE,122,0.0,0.0,96,0.00,,,0.00,weatherlink.com 1.10,2013-01-16 04:43:00,
2013-01-15 20:58:00,19.8,19.0,30.68,ESE,121,0.0,0.0,96,0.00,,,0.00,weatherlink.com 1.10,2013-01-16 04:58:00,
2013-01-15 21:28:00,18.9,18.0,30.67,SE,143,0.0,0.0,95,0.00,,,0.00,weatherlink.com 1.10,2013-01-16 05:28:00,
2013-01-15 21:43:00,18.4,17.0,30.67,SE,143,0.0,0.0,95,0.00,,,0.00,weatherlink.com 1.10,2013-01-16 05:43:00,
2013-01-15 21:58:00,18.2,17.0,30.68,ESE,103,0.0,0.0,95,0.00,,,0.00,weatherlink.com 1.10,2013-01-16 05:58:00,
2013-01-15 22:13:00,17.8,17.0,30.67,SW,233,0.0,0.0,95,0.00,,,0.00,weatherlink.com 1.10,2013-01-16 06:13:00,
2013-01-15 22:29:00,17.5,16.0,30.67,ESE,105,0.0,0.0,95,0.00,,,0.00,weatherlink.com 1.10,2013-01-16 06:29:00,
2013-01-15 22:44:00,16.6,16.0,30.67,WNW,283,0.0,0.0,95,0.00,,,0.00,weatherlink.com 1.10,2013-01-16 06:44:00,
2013-01-15 22:59:00,16.6,16.0,30.67,WNW,283,0.0,0.0,95,0.00,,,0.00,weatherlink.com 1.10,2013-01-16 06:59:00,
2013-01-15 23:14:00,16.0,14.0,30.67,WNW,283,0.0,0.0,93,0.00,,,0.00,weatherlink.com 1.10,2013-01-16 07:14:00,
2013-01-15 23:29:00,15.6,14.0,30.66,WNW,283,0.0,0.0,94,0.00,,,0.00,weatherlink.com 1.10,2013-01-16 07:29:00,
2013-01-15 23:44:00,15.2,14.0,30.66,WNW,283,0.0,0.0,93,0.00,,,0.00,weatherlink.com 1.10,2013-01-16 07:44:00,
2013-01-15 23:59:00,14.9,14.0,30.66,WNW,283,0.0,0.0,95,0.00,,,0.00,weatherlink.com 1.10,2013-01-16 07:59:00,